#Datum;Uhrzeit;WR;Pac;DaySum;Status;WR;Pac;DaySum;Status;Pdc1;Udc;Temp;WR;Pac;DaySum;Status;Pdc1;Udc;Temp;WR;Pac;DaySum;Status;Pdc1;Udc;Temp;WR;Pac;DaySum;Status;Pdc1;Pdc2;Udc1;Udc2;Temp;WR;Pac;DaySum;Status;Pdc1;Pdc2;Udc1;Udc2;Temp;WR;Pac;DaySum;Status;Pdc1;Udc;Temp;WR;Pac;DaySum;Status;Pdc1;Udc;Temp;WR;Pac;DaySum;Status;Pdc1;Udc;Temp
03.03.21;23:55:00;1;604;15536;0;2;0;13738;0;0;0;0;3;0;8942;0;0;0;0;4;0;12801;0;0;0;0;5;0;0;0;0;0;0;0;0;6;0;22704;0;0;0;0;0;0;7;0;17499;0;0;0;0;8;0;17444;0;0;0;0;9;0;9525;0;0;0;0
03.03.21;23:50:00;1;613;15489;0;2;0;13738;0;0;0;0;3;0;8942;0;0;0;0;4;0;12801;0;0;0;0;5;0;0;0;0;0;0;0;0;6;0;22704;0;0;0;0;0;0;7;0;17499;0;0;0;0;8;0;17444;0;0;0;0;9;0;9525;0;0;0;0
03.03.21;23:45:00;1;553;15441;0;2;0;13738;0;0;0;0;3;0;8942;0;0;0;0;4;0;12801;0;0;0;0;5;0;0;0;0;0;0;0;0;6;0;22704;0;0;0;0;0;0;7;0;17499;0;0;0;0;8;0;17444;0;0;0;0;9;0;9525;0;0;0;0
03.03.21;23:40:00;1;586;15394;0;2;0;13738;0;0;0;0;3;0;8942;0;0;0;0;4;0;12801;0;0;0;0;5;0;0;0;0;0;0;0;0;6;0;22704;0;0;0;0;0;0;7;0;17499;0;0;0;0;8;0;17444;0;0;0;0;9;0;9525;0;0;0;0
03.03.21;23:35:00;1;622;15346;0;2;0;13738;0;0;0;0;3;0;8942;0;0;0;0;4;0;12801;0;0;0;0;5;0;0;0;0;0;0;0;0;6;0;22704;0;0;0;0;0;0;7;0;17499;0;0;0;0;8;0;17444;0;0;0;0;9;0;9525;0;0;0;0
03.03.21;23:30:00;1;637;15294;0;2;0;13738;0;0;0;0;3;0;8942;0;0;0;0;4;0;12801;0;0;0;0;5;0;0;0;0;0;0;0;0;6;0;22704;0;0;0;0;0;0;7;0;17499;0;0;0;0;8;0;17444;0;0;0;0;9;0;9525;0;0;0;0
03.03.21;23:25:00;1;602;15240;0;2;0;13738;0;0;0;0;3;0;8942;0;0;0;0;4;0;12801;0;0;0;0;5;0;0;0;0;0;0;0;0;6;0;22704;0;0;0;0;0;0;7;0;17499;0;0;0;0;8;0;17444;0;0;0;0;9;0;9525;0;0;0;0
03.03.21;23:20:00;1;696;15190;0;2;0;13738;0;0;0;0;3;0;8942;0;0;0;0;4;0;12801;0;0;0;0;5;0;0;0;0;0;0;0;0;6;0;22704;0;0;0;0;0;0;7;0;17499;0;0;0;0;8;0;17444;0;0;0;0;9;0;9525;0;0;0;0
03.03.21;23:15:00;1;939;15132;0;2;0;13738;0;0;0;0;3;0;8942;0;0;0;0;4;0;12801;0;0;0;0;5;0;0;0;0;0;0;0;0;6;0;22704;0;0;0;0;0;0;7;0;17499;0;0;0;0;8;0;17444;0;0;0;0;9;0;9525;0;0;0;0
03.03.21;23:10:00;1;1172;15066;0;2;0;13738;0;0;0;0;3;0;8942;0;0;0;0;4;0;12801;0;0;0;0;5;0;0;0;0;0;0;0;0;6;0;22704;0;0;0;0;0;0;7;0;17499;0;0;0;0;8;0;17444;0;0;0;0;9;0;9525;0;0;0;0
03.03.21;23:05:00;1;806;14970;0;2;0;13738;0;0;0;0;3;0;8942;0;0;0;0;4;0;12801;0;0;0;0;5;0;0;0;0;0;0;0;0;6;0;22704;0;0;0;0;0;0;7;0;17499;0;0;0;0;8;0;17444;0;0;0;0;9;0;9525;0;0;0;0
03.03.21;23:00:00;1;719;14903;0;2;0;13738;0;0;0;0;3;0;8942;0;0;0;0;4;0;12801;0;0;0;0;5;0;0;0;0;0;0;0;0;6;0;22704;0;0;0;0;0;0;7;0;17499;0;0;0;0;8;0;17444;0;0;0;0;9;0;9525;0;0;0;0
03.03.21;22:55:00;1;745;14842;0;2;0;13738;0;0;0;0;3;0;8942;0;0;0;0;4;0;12801;0;0;0;0;5;0;0;0;0;0;0;0;0;6;0;22704;2;0;0;0;0;0;7;0;17499;0;0;0;0;8;0;17444;0;0;0;0;9;0;9525;0;0;0;0
03.03.21;22:50:00;1;751;14780;0;2;0;13738;0;0;0;0;3;0;8942;0;0;0;0;4;0;12801;0;0;0;0;5;0;0;0;0;0;0;0;0;6;0;22704;2;0;0;0;0;0;7;0;17499;0;0;0;0;8;0;17444;0;0;0;0;9;0;9525;0;0;0;0
03.03.21;22:45:00;1;717;14718;0;2;0;13738;0;0;0;0;3;0;8942;0;0;0;0;4;0;12801;0;0;0;0;5;0;0;0;0;0;0;0;0;6;0;22704;2;0;0;0;0;0;7;0;17499;0;0;0;0;8;0;17444;0;0;0;0;9;0;9525;0;0;0;0
03.03.21;22:40:00;1;718;14658;0;2;0;13738;0;0;0;0;3;0;8942;0;0;0;0;4;0;12801;0;0;0;0;5;0;0;0;0;0;0;0;0;6;0;22704;2;0;0;0;0;0;7;0;17499;0;0;0;0;8;0;17444;0;0;0;0;9;0;9525;0;0;0;0
03.03.21;22:35:00;1;793;14598;0;2;0;13738;0;0;0;0;3;0;8942;0;0;0;0;4;0;12801;0;0;0;0;5;0;0;0;0;0;0;0;0;6;0;22704;2;0;0;0;0;0;7;0;17499;0;0;0;0;8;0;17444;0;0;0;0;9;0;9525;0;0;0;0
03.03.21;22:30:00;1;1177;14532;0;2;0;13738;0;0;0;0;3;0;8942;0;0;0;0;4;0;12801;0;0;0;0;5;0;0;0;0;0;0;0;0;6;0;22704;2;0;0;0;0;0;7;0;17499;0;0;0;0;8;0;17444;0;0;0;0;9;0;9525;0;0;0;0
03.03.21;22:25:00;1;883;14439;0;2;0;13738;0;0;0;0;3;0;8942;0;0;0;0;4;0;12801;0;0;0;0;5;0;0;0;0;0;0;0;0;6;0;22704;2;0;0;0;0;0;7;0;17499;0;0;0;0;8;0;17444;0;0;0;0;9;0;9525;0;0;0;0
03.03.21;22:20:00;1;753;14375;0;2;0;13738;0;0;0;0;3;0;8942;0;0;0;0;4;0;12801;0;0;0;0;5;0;0;0;0;0;0;0;0;6;0;22704;2;0;0;0;0;0;7;0;17499;0;0;0;0;8;0;17444;0;0;0;0;9;0;9525;0;0;0;0
03.03.21;22:15:00;1;767;14313;0;2;0;13738;0;0;0;0;3;0;8942;0;0;0;0;4;0;12801;0;0;0;0;5;0;0;0;0;0;0;0;0;6;0;22704;2;0;0;0;0;0;7;0;17499;0;0;0;0;8;0;17444;0;0;0;0;9;0;9525;0;0;0;0
03.03.21;22:10:00;1;736;14249;0;2;0;13738;0;0;0;0;3;0;8942;0;0;0;0;4;0;12801;0;0;0;0;5;0;0;0;0;0;0;0;0;6;0;22704;2;0;0;0;0;0;7;0;17499;0;0;0;0;8;0;17444;0;0;0;0;9;0;9525;0;0;0;0
03.03.21;22:05:00;1;802;14187;0;2;0;13738;0;0;0;0;3;0;8942;0;0;0;0;4;0;12801;0;0;0;0;5;0;0;0;0;0;0;0;0;6;0;22704;2;0;0;0;0;0;7;0;17499;0;0;0;0;8;0;17444;0;0;0;0;9;0;9525;0;0;0;0
03.03.21;22:00:00;1;755;14122;0;2;0;13738;0;0;0;0;3;0;8942;0;0;0;0;4;0;12801;0;0;0;0;5;0;0;0;0;0;0;0;0;6;0;22704;2;0;0;0;0;0;7;0;17499;0;0;0;0;8;0;17444;0;0;0;0;9;0;9525;0;0;0;0
03.03.21;21:55:00;1;720;14058;0;2;0;13738;0;0;0;0;3;0;8942;0;0;0;0;4;0;12801;0;0;0;0;5;0;0;0;0;0;0;0;0;6;0;22704;2;0;0;0;0;0;7;0;17499;0;0;0;0;8;0;17444;0;0;0;0;9;0;9525;0;0;0;0
03.03.21;21:50:00;1;726;13997;0;2;0;13738;0;0;0;0;3;0;8942;0;0;0;0;4;0;12801;0;0;0;0;5;0;0;0;0;0;0;0;0;6;0;22704;2;0;0;0;0;0;7;0;17499;0;0;0;0;8;0;17444;0;0;0;0;9;0;9525;0;0;0;0
03.03.21;21:45:00;1;896;13937;0;2;0;13738;0;0;0;0;3;0;8942;0;0;0;0;4;0;12801;0;0;0;0;5;0;0;0;0;0;0;0;0;6;0;22704;2;0;0;0;0;0;7;0;17499;0;0;0;0;8;0;17444;0;0;0;0;9;0;9525;0;0;0;0
03.03.21;21:40:00;1;734;13843;0;2;0;13738;0;0;0;0;3;0;8942;0;0;0;0;4;0;12801;0;0;0;0;5;0;0;0;0;0;0;0;0;6;0;22704;2;0;0;0;0;0;7;0;17499;0;0;0;0;8;0;17444;0;0;0;0;9;0;9525;0;0;0;0
03.03.21;21:35:00;1;813;13781;0;2;0;13738;0;0;0;0;3;0;8942;0;0;0;0;4;0;12801;0;0;0;0;5;0;0;0;0;0;0;0;0;6;0;22704;2;0;0;0;0;0;7;0;17499;0;0;0;0;8;0;17444;0;0;0;0;9;0;9525;0;0;0;0
03.03.21;21:30:00;1;792;13713;0;2;0;13738;0;0;0;0;3;0;8942;0;0;0;0;4;0;12801;0;0;0;0;5;0;0;0;0;0;0;0;0;6;0;22704;2;0;0;0;0;0;7;0;17499;0;0;0;0;8;0;17444;0;0;0;0;9;0;9525;0;0;0;0
03.03.21;21:25:00;1;899;13647;0;2;0;13738;0;0;0;0;3;0;8942;0;0;0;0;4;0;12801;0;0;0;0;5;0;0;0;0;0;0;0;0;6;0;22704;2;0;0;0;0;0;7;0;17499;0;0;0;0;8;0;17444;0;0;0;0;9;0;9525;0;0;0;0
03.03.21;21:20:00;1;870;13573;0;2;0;13738;0;0;0;0;3;0;8942;0;0;0;0;4;0;12801;0;0;0;0;5;0;0;0;0;0;0;0;0;6;0;22704;2;0;0;0;0;0;7;0;17499;0;0;0;0;8;0;17444;0;0;0;0;9;0;9525;0;0;0;0
03.03.21;21:15:00;1;912;13500;0;2;0;13738;0;0;0;0;3;0;8942;0;0;0;0;4;0;12801;0;0;0;0;5;0;0;0;0;0;0;0;0;6;0;22704;2;0;0;0;0;0;7;0;17499;0;0;0;0;8;0;17444;0;0;0;0;9;0;9525;0;0;0;0
03.03.21;21:10:00;1;942;13424;0;2;0;13738;0;0;0;0;3;0;8942;0;0;0;0;4;0;12801;0;0;0;0;5;0;0;0;0;0;0;0;0;6;0;22704;2;0;0;0;0;0;7;0;17499;0;0;0;0;8;0;17444;0;0;0;0;9;0;9525;0;0;0;0
03.03.21;21:05:00;1;930;13345;0;2;0;13738;0;0;0;0;3;0;8942;0;0;0;0;4;0;12801;0;0;0;0;5;0;0;0;0;0;0;0;0;6;0;22704;2;0;0;0;0;0;7;0;17499;0;0;0;0;8;0;17444;0;0;0;0;9;0;9525;0;0;0;0
03.03.21;21:00:00;1;858;13267;0;2;0;13738;0;0;0;0;3;0;8942;0;0;0;0;4;0;12801;0;0;0;0;5;0;0;0;0;0;0;0;0;6;0;22704;2;0;0;0;0;0;7;0;17499;0;0;0;0;8;0;17444;0;0;0;0;9;0;9525;0;0;0;0
03.03.21;20:55:00;1;859;13196;0;2;0;13738;0;0;0;0;3;0;8942;0;0;0;0;4;0;12801;0;0;0;0;5;0;0;0;0;0;0;0;0;6;0;22704;2;0;0;0;0;0;7;0;17499;0;0;0;0;8;0;17444;0;0;0;0;9;0;9525;0;0;0;0
03.03.21;20:50:00;1;800;13126;0;2;0;13738;0;0;0;0;3;0;8942;0;0;0;0;4;0;12801;0;0;0;0;5;0;0;0;0;0;0;0;0;6;0;22704;2;0;0;0;0;0;7;0;17499;0;0;0;0;8;0;17444;0;0;0;0;9;0;9525;0;0;0;0
03.03.21;20:45:00;1;1287;13059;0;2;0;13738;0;0;0;0;3;0;8942;0;0;0;0;4;0;12801;0;0;0;0;5;0;0;0;0;0;0;0;0;6;0;22704;2;0;0;0;0;0;7;0;17499;0;0;0;0;8;0;17444;0;0;0;0;9;0;9525;0;0;0;0
03.03.21;20:40:00;1;901;12959;0;2;0;13738;0;0;0;0;3;0;8942;0;0;0;0;4;0;12801;0;0;0;0;5;0;0;0;0;0;0;0;0;6;0;22704;2;0;0;0;0;0;7;0;17499;0;0;0;0;8;0;17444;0;0;0;0;9;0;9525;0;0;0;0
03.03.21;20:35:00;1;914;12885;0;2;0;13738;0;0;0;0;3;0;8942;0;0;0;0;4;0;12801;0;0;0;0;5;0;0;0;0;0;0;0;0;6;0;22704;2;0;0;0;0;0;7;0;17499;0;0;0;0;8;0;17444;0;0;0;0;9;0;9525;0;0;0;0
03.03.21;20:30:00;1;874;12810;0;2;0;13738;0;0;0;0;3;0;8942;0;0;0;0;4;0;12801;0;0;0;0;5;0;0;0;0;0;0;0;0;6;0;22704;2;0;0;0;0;0;7;0;17499;0;0;0;0;8;0;17444;0;0;0;0;9;0;9525;0;0;0;0
03.03.21;20:25:00;1;824;12738;0;2;0;13738;0;0;0;0;3;0;8942;0;0;0;0;4;0;12801;0;0;0;0;5;0;0;0;0;0;0;0;0;6;0;22704;2;0;0;0;0;0;7;0;17499;0;0;0;0;8;0;17444;0;0;0;0;9;0;9525;0;0;0;0
03.03.21;20:20:00;1;813;12669;0;2;0;13738;0;0;0;0;3;0;8942;0;0;0;0;4;0;12801;0;0;0;0;5;0;0;0;0;0;0;0;0;6;0;22704;2;0;0;0;0;0;7;0;17499;0;0;0;0;8;0;17444;0;0;0;0;9;0;9525;0;0;0;0
03.03.21;20:15:00;1;779;12601;0;2;0;13738;0;0;0;0;3;0;8942;0;0;0;0;4;0;12801;0;0;0;0;5;0;0;0;0;0;0;0;0;6;0;22704;2;0;0;0;0;0;7;0;17499;0;0;0;0;8;0;17444;0;0;0;0;9;0;9525;0;0;0;0
03.03.21;20:10:00;1;791;12535;0;2;0;13738;0;0;0;0;3;0;8942;0;0;0;0;4;0;12801;0;0;0;0;5;0;0;0;0;0;0;0;0;6;0;22704;2;0;0;0;0;0;7;0;17499;0;0;0;0;8;0;17444;0;0;0;0;9;0;9525;0;0;0;0
03.03.21;20:05:00;1;822;12445;0;2;0;13738;0;0;0;0;3;0;8942;0;0;0;0;4;0;12801;0;0;0;0;5;0;0;0;0;0;0;0;0;6;0;22704;2;0;0;0;0;0;7;0;17499;0;0;0;0;8;0;17444;0;0;0;0;9;0;9525;0;0;0;0
03.03.21;20:00:00;1;835;12380;0;2;0;13738;0;0;0;0;3;0;8942;0;0;0;0;4;0;12801;0;0;0;0;5;0;0;0;0;0;0;0;0;6;0;22704;2;0;0;0;0;0;7;0;17499;0;0;0;0;8;0;17444;0;0;0;0;9;0;9525;0;0;0;0
03.03.21;19:55:00;1;696;12313;0;2;0;13738;0;0;0;0;3;0;8942;0;0;0;0;4;0;12801;0;0;0;0;5;0;0;0;0;0;0;0;0;6;0;22704;2;0;0;0;0;0;7;0;17499;0;0;0;0;8;0;17444;0;0;0;0;9;0;9525;0;0;0;0
03.03.21;19:50:00;1;722;12255;0;2;0;13738;0;0;0;0;3;0;8942;0;0;0;0;4;0;12801;0;0;0;0;5;0;0;0;0;0;0;0;0;6;0;22704;2;0;0;0;0;0;7;0;17499;0;0;0;0;8;0;17444;0;0;0;0;9;0;9525;0;0;0;0
03.03.21;19:45:00;1;756;12194;0;2;0;13738;0;0;0;0;3;0;8942;0;0;0;0;4;0;12801;0;0;0;0;5;0;0;0;0;0;0;0;0;6;0;22704;2;0;0;0;0;0;7;0;17499;0;0;0;0;8;0;17444;0;0;0;0;9;0;9525;0;0;0;0
03.03.21;19:40:00;1;927;12131;0;2;0;13738;0;0;0;0;3;0;8942;0;0;0;0;4;0;12801;0;0;0;0;5;0;0;0;0;0;0;0;0;6;0;22704;2;0;0;0;0;0;7;0;17499;0;0;0;0;8;0;17444;0;0;0;0;9;0;9525;0;0;0;0
03.03.21;19:35:00;1;1029;12056;0;2;0;13738;0;0;0;0;3;0;8942;0;0;0;0;4;0;12801;0;0;0;0;5;0;0;0;0;0;0;0;0;6;0;22704;0;0;0;0;0;0;7;0;17499;0;0;0;0;8;0;17444;0;0;0;0;9;0;9525;0;0;0;0
03.03.21;19:30:00;1;1350;11970;0;2;0;13738;0;0;0;0;3;0;8942;0;0;0;0;4;0;12801;0;0;0;0;5;0;0;0;0;0;0;0;0;6;0;22704;2;0;0;0;0;0;7;0;17499;0;0;0;0;8;0;17444;0;0;0;0;9;0;9525;0;0;0;0
03.03.21;19:25:00;1;998;11858;0;2;0;13738;0;0;0;0;3;0;8942;0;0;0;0;4;0;12801;0;0;0;0;5;0;0;0;0;0;0;0;0;6;0;22704;2;0;0;0;0;0;7;0;17499;0;0;0;0;8;0;17444;0;0;0;0;9;0;9525;0;0;0;0
03.03.21;19:20:00;1;708;11772;0;2;0;13738;0;0;0;0;3;0;8942;0;0;0;0;4;0;12801;0;0;0;0;5;0;0;0;0;0;0;0;0;6;0;22704;2;0;0;0;0;0;7;0;17499;0;0;0;0;8;0;17444;0;0;0;0;9;0;9525;0;0;0;0
03.03.21;19:15:00;1;544;11714;0;2;0;13738;0;0;0;0;3;0;8942;0;0;0;0;4;0;12801;0;0;0;0;5;0;0;0;0;0;0;0;0;6;0;22704;2;0;0;0;0;0;7;0;17499;0;0;0;0;8;0;17444;0;0;0;0;9;0;9525;0;0;0;0
03.03.21;19:10:00;1;533;11668;0;2;0;13738;0;0;0;0;3;0;8942;0;0;0;0;4;0;12801;0;0;0;0;5;0;0;0;0;0;0;0;0;6;0;22704;2;0;0;0;0;0;7;0;17499;0;0;0;0;8;0;17444;0;0;0;0;9;0;9525;0;0;0;0
03.03.21;19:05:00;1;592;11624;0;2;0;13738;0;0;0;0;3;0;8942;0;0;0;0;4;0;12801;0;0;0;0;5;0;0;0;0;0;0;0;0;6;0;22704;2;0;0;0;0;0;7;0;17499;0;0;0;0;8;0;17444;0;0;0;0;9;0;9525;0;0;0;0
03.03.21;19:00:00;1;545;11575;0;2;0;13738;0;0;0;0;3;0;8942;0;0;0;0;4;0;12801;0;0;0;0;5;0;0;0;0;0;0;0;0;6;0;22704;2;0;0;0;0;0;7;0;17499;0;0;0;0;8;0;17444;0;0;0;0;9;0;9525;0;0;0;0
03.03.21;18:55:00;1;553;11530;0;2;0;13738;0;0;0;0;3;0;8942;0;0;0;0;4;0;12801;0;0;0;0;5;0;0;0;0;0;0;0;0;6;0;22704;2;0;0;0;0;0;7;0;17499;0;0;0;0;8;0;17444;0;0;0;0;9;0;9525;0;0;0;0
03.03.21;18:50:00;1;612;11484;0;2;0;13738;0;0;0;0;3;0;8942;0;0;0;0;4;0;12801;0;0;0;0;5;0;0;0;0;0;0;0;0;6;0;22704;2;0;0;0;0;0;7;0;17499;0;0;0;0;8;0;17444;0;0;0;0;9;0;9525;0;0;0;0
03.03.21;18:45:00;1;721;11430;0;2;0;13738;0;0;0;0;3;0;8942;0;0;0;0;4;0;12801;0;0;0;0;5;0;0;0;0;0;0;0;0;6;0;22704;2;0;0;0;0;0;7;0;17499;0;0;0;0;8;0;17444;0;0;0;0;9;0;9525;0;0;0;0
03.03.21;18:40:00;1;539;11369;0;2;0;13738;0;0;0;0;3;0;8942;0;0;0;0;4;0;12801;0;0;0;0;5;0;0;0;0;0;0;0;0;6;0;22704;2;0;0;0;0;0;7;0;17499;0;0;0;0;8;0;17444;0;0;0;0;9;0;9525;0;0;0;0
03.03.21;18:35:00;1;533;11323;0;2;0;13738;0;0;0;0;3;0;8942;0;0;0;0;4;0;12801;0;0;0;0;5;0;0;0;0;0;0;0;0;6;0;22704;2;0;0;0;0;0;7;0;17499;0;0;0;0;8;0;17444;0;0;0;0;9;0;9525;0;0;0;0
03.03.21;18:30:00;1;490;11279;0;2;0;13738;0;0;0;0;3;0;8942;0;0;0;0;4;0;12801;0;0;0;0;5;0;0;0;0;0;0;0;0;6;0;22704;2;0;0;0;0;0;7;0;17499;0;0;0;0;8;0;17444;0;0;0;0;9;0;9525;0;0;0;0
03.03.21;18:25:00;1;479;11238;0;2;0;13738;0;0;0;0;3;0;8942;0;0;0;0;4;0;12801;0;0;0;0;5;0;0;0;0;0;0;0;0;6;0;22704;2;0;0;0;0;0;7;0;17499;0;0;0;0;8;0;17444;0;0;0;0;9;0;9525;0;0;0;0
03.03.21;18:20:00;1;514;11198;0;2;0;13738;0;0;0;0;3;0;8942;0;0;0;0;4;0;12801;0;0;0;0;5;0;0;0;0;0;0;0;0;6;0;22704;2;0;0;0;0;0;7;0;17499;0;0;0;0;8;0;17444;0;0;0;0;9;0;9525;0;0;0;0
03.03.21;18:15:00;1;531;11145;0;2;0;13738;0;0;0;0;3;0;8942;0;0;0;0;4;0;12801;0;0;0;0;5;0;0;0;0;0;0;0;0;6;0;22704;2;0;0;0;0;0;7;0;17499;0;0;0;0;8;0;17444;0;0;0;0;9;0;9525;0;0;0;0
03.03.21;18:10:00;1;485;11101;0;2;0;13738;0;0;0;0;3;0;8942;0;0;152;9;4;0;12801;0;0;0;0;5;0;0;0;0;0;0;0;0;6;0;22704;2;0;0;0;0;0;7;0;17499;0;0;0;0;8;0;17444;0;0;0;0;9;0;9525;0;0;0;0
03.03.21;18:05:00;1;1420;11060;0;2;0;13738;6;0;279;13;3;0;8942;6;0;310;16;4;0;12801;0;0;25;5;5;0;0;0;0;0;0;0;0;6;0;22704;2;0;0;0;0;0;7;0;17499;0;0;0;0;8;0;17444;0;0;0;0;9;0;9525;0;0;0;0
03.03.21;18:00:00;1;1277;10971;0;2;0;13738;6;0;308;13;3;0;8942;6;0;367;16;4;0;12801;2;0;83;15;5;0;0;0;0;0;0;0;0;6;0;22704;1;0;0;0;0;2;7;0;17499;0;0;0;0;8;0;17444;0;0;0;0;9;0;9525;0;0;0;0
03.03.21;17:55:00;1;1283;10847;0;2;0;13738;6;0;333;13;3;0;8942;6;0;412;16;4;0;12801;1;0;109;15;5;0;0;0;0;0;0;0;0;6;0;22704;0;5;2;205;259;20;7;0;17499;0;0;0;0;8;0;17444;0;0;35;3;9;0;9525;0;0;149;10
03.03.21;17:50:00;1;1384;10712;0;2;0;13738;6;0;355;14;3;0;8942;4;1;431;17;4;0;12801;1;0;139;16;5;0;0;0;0;0;0;0;0;6;0;22704;23;7;5;181;497;24;7;0;17499;6;0;277;22;8;0;17444;6;0;282;22;9;0;9525;6;0;301;18
03.03.21;17:45:00;1;2398;10576;0;2;0;13738;6;0;381;14;3;2;8942;3;7;420;17;4;0;12801;1;0;189;16;5;0;0;0;0;0;0;0;0;6;0;22704;23;6;3;181;550;25;7;0;17499;6;0;363;23;8;0;17444;6;0;370;22;9;0;9525;6;0;394;18
03.03.21;17:40:00;1;2181;10456;0;2;0;13738;6;0;397;14;3;3;8941;6;9;452;17;4;0;12801;1;0;208;16;5;0;0;0;0;0;0;0;0;6;0;22704;23;4;8;345;572;25;7;0;17499;6;0;408;23;8;0;17444;6;0;414;23;9;0;9525;6;1;441;18
03.03.21;17:35:00;1;3219;10278;0;2;0;13738;6;0;409;15;3;4;8941;6;10;475;17;4;0;12801;3;0;204;17;5;0;0;0;0;0;0;0;0;6;47;22704;1;16;27;501;480;26;7;0;17499;6;0;457;23;8;0;17444;6;0;462;23;9;0;9525;6;1;487;19
03.03.21;17:30:00;1;1542;10022;0;2;4;13738;6;11;404;15;3;4;8941;6;12;474;17;4;3;12801;3;3;199;17;5;0;0;0;0;0;0;0;0;6;66;22700;4;21;29;482;461;26;7;1;17499;3;4;453;24;8;1;17444;4;5;456;23;9;0;9525;6;0;528;19
03.03.21;17:25:00;1;326;9850;0;2;18;13738;6;34;388;15;3;2;8941;6;6;518;18;4;1;12801;3;1;199;17;5;0;0;0;0;0;0;0;0;6;90;22694;4;37;54;482;461;27;7;2;17498;6;7;470;24;8;9;17444;6;14;451;23;9;1;9525;4;9;495;19
03.03.21;17:20:00;1;326;9823;0;2;49;13736;4;82;356;16;3;6;8940;6;15;498;18;4;26;12801;3;27;198;18;5;0;0;0;0;0;0;0;0;6;110;22686;4;51;70;483;461;27;7;9;17498;6;21;451;24;8;10;17443;6;20;452;24;9;3;9525;3;12;508;19
03.03.21;17:15:00;1;337;9795;0;2;71;13732;4;104;367;16;3;11;8940;3;22;510;18;4;33;12798;3;34;197;18;5;0;0;0;0;0;0;0;0;6;139;22677;4;56;73;482;461;27;7;45;17497;4;85;404;24;8;52;17442;4;82;411;24;9;4;9524;6;8;541;20
03.03.21;17:10:00;1;292;9767;0;2;92;13726;4;127;364;16;3;21;8939;6;36;518;18;4;53;12796;3;55;197;18;5;0;0;0;0;0;0;0;0;6;163;22665;4;72;83;482;461;27;7;72;17493;4;108;425;25;8;59;17436;0;89;340;19;9;8;9524;6;13;543;20
03.03.21;17:05:00;1;377;9742;0;2;116;13719;4;154;370;16;3;65;8937;4;103;451;19;4;74;12791;3;77;198;18;5;0;0;0;0;0;0;0;0;6;197;22651;4;103;120;483;461;27;7;82;17487;4;110;328;20;8;98;17432;4;135;400;24;9;8;9524;6;12;553;20
03.03.21;17:00:00;1;288;9710;0;2;140;13709;4;176;368;17;3;80;8931;4;117;463;19;4;103;12785;3;107;211;18;5;0;0;0;0;0;0;0;0;6;226;22635;4;104;116;482;461;27;7;124;17479;4;160;388;25;8;128;17424;4;166;416;25;9;55;9523;6;78;471;21
03.03.21;16:55:00;1;337;9686;0;2;160;13697;4;197;377;17;3;93;8925;4;133;466;19;4;113;12777;5;118;224;19;5;0;0;0;0;0;0;0;0;6;249;22616;4;124;143;482;461;27;7;153;17469;4;185;405;25;8;155;17413;4;191;411;25;9;82;9519;4;111;469;21
03.03.21;16:50:00;1;310;9658;0;2;174;13684;4;212;376;17;3;103;8917;4;143;479;19;4;133;12767;5;139;226;19;5;0;0;0;0;0;0;0;0;6;261;22595;4;117;130;482;461;27;7;162;17456;4;195;390;25;8;164;17400;4;202;403;25;9;87;9512;4;120;468;22
03.03.21;16:45:00;1;310;9632;0;2;192;13669;4;231;377;17;3;116;8908;4;154;485;19;4;149;12756;5;156;225;19;5;0;0;0;0;0;0;0;0;6;294;22573;4;145;168;483;484;27;7;189;17443;4;218;414;25;8;185;17387;4;225;415;25;9;100;9505;4;132;488;22
03.03.21;16:40:00;1;268;9606;0;2;233;13653;4;251;380;18;3;128;8899;4;164;497;20;4;165;12744;5;173;224;19;5;0;0;0;0;0;0;0;0;6;336;22548;4;145;171;505;537;27;7;211;17427;4;249;437;26;8;206;17371;4;247;428;25;9;111;9496;4;145;493;22
03.03.21;16:35:00;1;290;9583;0;2;239;13634;4;278;382;18;3;142;8888;4;180;466;20;4;189;12730;5;197;223;19;5;0;0;0;0;0;0;0;0;6;392;22519;4;200;215;568;551;27;7;231;17409;4;281;450;26;8;241;17354;4;281;455;25;9;127;9487;4;160;505;22
03.03.21;16:30:00;1;503;9558;0;2;264;13614;4;304;381;18;3;159;8876;4;198;465;20;4;216;12714;5;225;228;20;5;0;0;0;0;0;0;0;0;6;426;22486;4;207;218;562;551;27;7;266;17390;4;307;449;26;8;268;17334;4;310;458;25;9;143;9477;4;177;500;23
03.03.21;16:25:00;1;248;9507;0;2;288;13592;4;330;388;18;3;177;8863;4;216;468;20;4;239;12696;5;248;229;20;5;0;0;0;0;0;0;0;0;6;467;22450;4;234;253;567;550;27;7;293;17368;4;333;444;26;8;296;17311;4;336;466;26;9;158;9465;4;192;512;23
03.03.21;16:20:00;1;289;9486;0;2;311;13568;4;356;394;19;3;194;8848;4;236;488;21;4;263;12676;5;274;229;20;5;0;0;0;0;0;0;0;0;6;514;22411;4;246;261;576;552;27;7;330;17343;4;375;447;26;8;330;17287;4;372;447;26;9;177;9451;4;214;512;23
03.03.21;16:15:00;1;2156;9450;0;2;361;13542;4;407;391;19;3;223;8832;4;269;490;21;4;310;12654;5;323;231;20;5;0;0;0;0;0;0;0;0;6;592;22367;4;293;311;566;557;27;7;382;17316;4;427;453;26;8;391;17259;4;434;448;26;9;210;9437;4;247;499;23
03.03.21;16:10:00;1;2173;9270;0;2;413;13512;4;461;388;19;3;254;8814;4;298;492;21;4;359;12629;5;374;232;21;5;0;0;0;0;0;0;0;0;6;669;22318;4;333;344;572;556;27;7;458;17284;4;499;454;27;8;458;17227;4;499;458;26;9;243;9419;4;284;516;24
03.03.21;16:05:00;1;2223;9089;0;2;485;13477;4;535;396;20;3;298;8792;4;346;496;21;4;426;12599;5;444;235;21;5;0;0;0;0;0;0;0;0;6;781;22261;4;380;394;579;559;27;7;540;17246;4;591;466;27;8;535;17188;4;596;475;26;9;288;9399;4;333;518;24
03.03.21;16:00:00;1;2163;8902;0;2;558;13437;4;611;402;20;3;347;8767;4;401;504;22;4;494;12563;5;514;236;21;5;0;0;0;0;0;0;0;0;6;879;22195;4;455;461;580;562;28;7;636;17201;4;678;471;27;8;625;17144;4;681;467;27;9;336;9375;4;381;511;24
03.03.21;15:55:00;1;339;8737;0;2;620;13391;4;675;400;21;3;389;8739;4;440;502;22;4;545;12522;5;568;235;21;5;0;0;0;0;0;0;0;0;6;958;22121;4;471;482;581;558;28;7;696;17148;4;751;468;27;8;701;17092;4;758;472;27;9;379;9347;4;425;517;25
03.03.21;15:50:00;1;289;8709;0;2;649;13339;4;707;401;21;3;410;8706;4;460;502;22;4;570;12477;5;593;236;22;5;0;0;0;0;0;0;0;0;6;996;22041;4;518;513;580;557;28;7;726;17090;4;789;474;27;8;733;17033;4;792;475;27;9;393;9315;4;444;519;25
03.03.21;15:45:00;1;526;8685;0;2;688;13285;4;748;401;21;3;436;8672;4;490;506;22;4;607;12429;5;632;235;22;5;0;0;0;0;0;0;0;0;6;1049;21957;4;538;542;583;562;28;7;774;17029;4;830;470;27;8;776;16972;4;829;474;27;9;417;9282;4;466;525;25
03.03.21;15:40:00;1;635;8649;0;2;728;13227;4;788;393;22;3;462;8636;4;514;502;23;4;643;12378;5;670;240;22;5;0;0;0;0;0;0;0;0;6;1117;21870;4;568;565;584;557;28;7;813;16965;4;876;468;28;8;823;16908;4;873;470;27;9;442;9247;4;496;519;25
03.03.21;15:35:00;1;429;8592;0;2;805;13167;4;866;399;22;3;511;8597;4;564;511;23;4;711;12325;5;740;238;23;5;0;0;0;0;0;0;0;0;6;1225;21776;4;636;627;584;561;28;7;903;16897;4;966;470;28;8;908;16839;4;967;468;27;9;489;9211;4;542;520;25
03.03.21;15:30:00;1;389;8555;0;2;857;13100;4;924;402;22;3;546;8554;4;602;518;23;4;765;12265;5;797;239;23;5;0;0;0;0;0;0;0;0;6;1302;21673;4;669;652;586;563;28;7;974;16822;4;1034;470;28;8;973;16764;4;1035;470;27;9;527;9170;4;582;520;26
03.03.21;15:25:00;1;724;8523;0;2;911;13028;4;978;399;23;3;581;8509;4;640;515;23;4;808;12202;5;842;240;23;5;0;0;0;0;0;0;0;0;6;1364;21564;4;696;688;586;561;28;7;1021;16740;4;1089;467;28;8;1029;16681;4;1096;475;28;9;558;9126;4;614;527;26
03.03.21;15:20:00;1;2258;8470;0;2;947;12952;4;1017;408;23;3;602;8460;4;666;520;24;4;839;12134;5;874;236;23;5;0;0;0;0;0;0;0;0;6;1402;21450;4;720;707;585;564;28;7;1065;16655;4;1131;473;28;8;1069;16596;4;1133;474;28;9;576;9079;4;632;529;26
03.03.21;15:15:00;1;2208;8283;0;2;992;12873;4;1065;409;24;3;639;8410;4;699;508;24;4;882;12064;5;919;241;24;5;0;0;0;0;0;0;0;0;6;1470;21333;4;753;737;590;565;28;7;1119;16567;4;1198;479;28;8;1129;16507;4;1197;470;28;9;611;9031;4;670;525;26
03.03.21;15:10:00;1;2175;8098;0;2;1031;12791;4;1104;411;24;3;662;8357;4;723;511;24;4;918;11991;5;956;240;24;5;0;0;0;0;0;0;0;0;6;1516;21210;4;763;770;585;563;28;7;1168;16474;4;1243;475;28;8;1176;16414;4;1248;470;28;9;640;8981;4;699;525;26
03.03.21;15:05:00;1;683;7916;0;2;1069;12705;4;1142;405;24;3;684;8302;4;748;518;24;4;950;11915;5;990;240;24;5;0;0;0;0;0;0;0;0;6;1564;21083;4;797;784;585;560;29;7;1221;16376;4;1291;481;28;8;1225;16315;4;1295;478;28;9;661;8927;4;724;524;26
03.03.21;15:00:00;1;321;7857;0;2;1090;12616;4;1164;402;25;3;697;8245;4;761;518;24;4;965;11835;5;1005;239;24;5;0;0;0;0;0;0;0;0;6;1591;20952;4;819;811;587;561;29;7;1240;16275;4;1310;483;28;8;1248;16213;4;1319;471;28;9;678;8872;4;741;523;27
03.03.21;14:55:00;1;315;7830;0;2;1100;12525;4;1174;402;25;3;702;8187;4;767;510;25;4;967;11755;5;1008;237;25;5;0;0;0;0;0;0;0;0;6;1599;20820;4;820;816;587;560;29;7;1261;16171;4;1342;472;29;8;1265;16111;4;1345;474;28;9;689;8816;4;751;523;27
03.03.21;14:50:00;1;300;7769;0;2;1091;12433;4;1164;394;26;3;699;8129;4;763;510;25;4;963;11674;5;1003;239;25;5;0;0;0;0;0;0;0;0;6;1586;20687;4;818;804;582;561;29;7;1275;16067;4;1350;474;29;8;1274;16004;4;1354;475;28;9;694;8758;4;754;525;27
03.03.21;14:45:00;1;319;7744;0;2;1087;12342;4;1162;402;27;3;694;8070;4;757;511;26;4;961;11594;5;1001;237;26;5;0;0;0;0;0;0;0;0;6;1583;20555;4;812;791;584;559;29;7;1287;15960;4;1360;475;28;8;1294;15898;4;1360;469;28;9;699;8701;4;762;516;27
03.03.21;14:40:00;1;373;7718;0;2;1182;12252;4;1261;398;28;3;754;8013;4;820;506;26;4;1044;11514;5;1088;237;26;5;0;0;0;0;0;0;0;0;6;1724;20423;4;874;856;574;557;29;7;1407;15853;4;1485;474;28;8;1404;15790;4;1483;464;28;9;758;8642;4;822;512;27
03.03.21;14:35:00;1;359;7687;0;2;1636;12153;4;1732;390;29;3;1046;7949;4;1124;507;27;4;1443;11427;5;1503;235;27;5;0;0;0;0;0;0;0;0;6;2329;20275;4;1209;1172;573;551;29;7;1965;15735;4;2065;465;28;8;1923;15672;4;2025;471;28;9;1034;8579;4;1109;521;27
03.03.21;14:30:00;1;337;7655;0;2;3059;12020;4;3215;395;30;3;1956;7864;4;2067;510;27;4;2658;11310;5;2769;237;27;5;0;0;0;0;0;0;0;0;6;3975;20078;4;2080;1987;585;560;29;7;3642;15575;4;3821;469;27;8;3594;15515;4;3770;477;27;9;2017;8494;4;2137;521;27
03.03.21;14:25:00;1;465;7627;0;2;2619;11772;4;2755;402;29;3;1698;7707;4;1801;511;27;4;2323;11096;5;2420;240;26;5;0;0;0;0;0;0;0;0;6;3577;19741;4;1850;1796;585;557;29;7;2736;15285;4;2863;391;22;8;3360;15227;4;3518;466;26;9;1855;8334;4;1964;518;26
03.03.21;14:20:00;1;345;7566;0;2;2292;11549;4;2416;405;29;3;1481;7562;4;1574;512;27;4;2031;10898;5;2116;238;26;5;0;0;0;0;0;0;0;0;6;3176;19440;4;1642;1576;586;562;29;7;2371;15003;4;2488;378;20;8;2942;14943;4;3088;474;26;9;1618;8176;4;1717;526;25
03.03.21;14:15:00;1;292;7539;0;2;2454;11358;4;2580;405;29;3;1598;7438;4;1697;512;27;4;2196;10728;5;2287;241;26;5;0;0;0;0;0;0;0;0;6;3443;19176;4;1793;1730;588;561;29;7;3120;14760;4;3267;476;26;8;2592;14701;4;2714;393;21;9;1700;8042;4;1803;521;25
03.03.21;14:10:00;1;354;7514;0;2;2217;11155;4;2336;398;29;3;1441;7307;4;1531;511;27;4;2000;10548;5;2083;238;26;5;0;0;0;0;0;0;0;0;6;3177;18890;4;1650;1598;589;563;29;7;2882;14499;4;3020;474;26;8;2878;14444;4;3023;475;26;9;1594;7900;4;1689;523;25